Regional Weather Roundup
Issued by NWS Jackson, KY

Home | Current Version | Previous Version | Graphics & Text | Print | Product List | Glossary On
Versions: 1 2 3 4 5 6 7 8 9 10 11 12 13 14 15 16 17 18 19 20 21 22 23 24 25 26 27 28 29 30 31 32 33 34 35 36 37 38 39 40 41 42 43 44 45 46 47 48 49 50
709
ASUS43 KJKL 271110
RWRJKL

EAST KENTUCKY HOURLY WEATHER ROUNDUP
NATIONAL WEATHER SERVICE JACKSON KY
700 AM EDT TUE JUN 27 2017

NOTE: "FAIR" INDICATES FEW OR NO CLOUDS BELOW 12,000 FEET WITH
NO SIGNIFICANT WEATHER AND/OR OBSTRUCTIONS TO VISIBILITY.

* THESE REPORTS ARE NOT UNDER NWS QUALITY CONTROL AND MAY NOT
  REPORT WEATHER SUCH AS PRECIPITATION AND FOG.

KYZ079-080-083-085-087-088-110-112-115-119-120-271200
...EASTERN KENTUCKY...

CITY           SKY/WX    TMP DP  RH WIND       PRES   REMARKS
JACKSON        CLEAR     56  52  86 W3        30.15R
LONDON         CLEAR     56  53  90 CALM      30.15R
SOMERSET*      CLEAR     52  52 100 CALM      30.16R
MONTICELLO*    PTCLDY    54  53  97 CALM      30.17R
WILLIAMSBURG*  SUNNY     52  52 100 CALM      30.16R
MIDDLESBORO*   MOCLDY    54  54 100 CALM      30.15S
HARLAN APT*    CLOUDY    54  52  94 CALM      30.16R VSB 1/2
PIKE CO APT*     N/A     56  56  99 CALM      30.14R
BIG SANDY APT* SUNNY     57  54  88 CALM      30.14R
MOREHEAD APT*  CLOUDY    57  54  88 SW6       30.15R HAZE
ASHLAND*       CLOUDY    59  54  82 W5        30.10R
$$

KYZ035-036-041-042-044-050-067-078-099-271200
...CENTRAL KENTUCKY...

CITY           SKY/WX    TMP DP  RH WIND       PRES   REMARKS
MT STERLING*   CLOUDY    55  54  94 W3        30.15F
FLEMING/MASON* CLEAR     55  51  89 W6        30.14R
DANVILLE*      PTCLDY    52  50  93 CALM      30.15S
LEXINGTON      PTCLDY    56  53  90 CALM      30.14R
FRANKFORT      CLEAR     56  52  86 CALM      30.13R
LOUISVILLE     PTCLDY    60  57  89 CALM      30.14R
LEBANON*         N/A    N/A N/A N/A MISG        N/A
GLASGOW*       CLEAR     57  56  95 NE3       30.14R
BOWLING GREEN  CLEAR     60  57  89 CALM      30.13R
$$

KYZ091>093-OHZ055-061-077-WVZ005-015-034-035-042-271200
...SOUTHERN OHIO/WEST VIRGINIA...

CITY           SKY/WX    TMP DP  RH WIND       PRES   REMARKS
COVINGTON      CLEAR     54  50  86 W3        30.13R
COLUMBUS       PTCLDY    54  52  93 W3        30.09R
DAYTON         CLEAR     53  50  89 W7        30.12R
WILMINGTON     CLEAR     54  51  90 W6        30.12R
HUNTINGTON     CLOUDY    57  54  89 SW6       30.12R
CHARLESTON     CLOUDY    59  55  87 CALM      30.10R
PINEVILLE*     CLEAR     49  49  97 MISG      30.19S
BECKLEY        CLEAR     52  48  86 CALM      30.15R
BLUEFIELD      PTCLDY    53  46  77 W6        30.16R
LOGAN CO APT*  PTSUNNY   55  54  94 CALM      30.13R
$$

VAZ002-007-008-TNZ017-027-036-066-071-271200
...SOUTHWEST VIRGINIA/EAST TENNESSEE...

CITY           SKY/WX    TMP DP  RH WIND       PRES   REMARKS
WISE*          PTCLDY    59  45  58 CALM      30.18R
JONESVILLE*      N/A     52  52 100 CALM      30.17R
ABINGDON*      PTCLDY    57  56  95 CALM      30.14S
BRISTOL        MOCLDY    58  56  93 CALM      30.13R
MORRISTOWN*    PTSUNNY   57  57 100 CALM      30.12R
SEVIERVILLE*   MOSUNNY   55  54  94 CALM      30.12R
KNOXVILLE      CLOUDY    60  56  86 NE5       30.12R
LAFOLLETTE*    CLOUDY    57  55  94 CALM      30.17S
OAK RIDGE      CLOUDY    58  55  90 CALM      30.13R
CROSSVILLE     CLEAR     55  52  89 CALM      30.15R
NASHVILLE      CLOUDY    64  59  83 CALM      30.12R
$$

...KEY TO REMARKS...
VSB - VISIBILITY IN MILES
WCI - WIND CHILL INDEX
HX  - HEAT INDEX

$$




USA.gov is the U.S. government's official web portal to all federal, state and local government web resources and services.